Time,TemperatureF,DewpointF,PressureIn,WindDirection,WindDirectionDegrees,WindSpeedMPH,WindSpeedGustMPH,Humidity,HourlyPrecipIn,Conditions,Clouds,dailyrainin,SoftwareType,DateUTC
2013-03-15 00:03:00,39.4,18.8,29.21,SW,232,0.0,0.0,43,0.00,,SKC,0.00,VWS V14.00,2013-03-15 04:03:00,
2013-03-15 00:08:00,39.4,18.8,29.21,SW,232,0.0,0.0,43,0.00,,SKC,0.00,VWS V14.00,2013-03-15 04:08:00,
2013-03-15 00:09:00,39.4,18.8,29.21,SW,232,0.0,0.0,43,0.00,,SKC,0.00,VWS V14.00,2013-03-15 04:09:00,
2013-03-15 00:18:00,39.4,18.8,29.21,SW,232,0.0,0.0,43,0.00,,SKC,0.00,VWS V14.00,2013-03-15 04:18:00,
2013-03-15 00:20:00,39.4,18.8,29.21,SW,232,0.0,0.0,43,0.00,,SKC,0.00,VWS V14.00,2013-03-15 04:20:00,
2013-03-15 00:28:00,39.6,18.9,29.21,SW,232,0.0,0.0,43,0.00,,SKC,0.00,VWS V14.00,2013-03-15 04:28:00,
2013-03-15 00:33:00,39.6,18.9,29.21,SW,230,0.0,0.0,43,0.00,,SKC,0.00,VWS V14.00,2013-03-15 04:33:00,
2013-03-15 00:38:00,39.6,18.9,29.21,SW,230,0.0,0.0,43,0.00,,SKC,0.00,VWS V14.00,2013-03-15 04:38:00,
2013-03-15 00:39:00,39.6,18.9,29.21,SW,230,0.0,0.0,43,0.00,,SKC,0.00,VWS V14.00,2013-03-15 04:39:00,
2013-03-15 00:48:00,39.4,19.3,29.21,SSW,208,0.0,0.0,44,0.00,,SKC,0.00,VWS V14.00,2013-03-15 04:48:00,
2013-03-15 00:53:00,39.4,19.3,29.21,SSW,208,0.0,0.0,44,0.00,,SKC,0.00,VWS V14.00,2013-03-15 04:53:00,
2013-03-15 00:58:00,39.2,19.1,29.21,SSW,208,0.0,0.0,44,0.00,,SKC,0.00,VWS V14.00,2013-03-15 04:58:00,
2013-03-15 01:03:00,39.2,19.1,29.21,SSW,208,0.0,0.0,44,0.00,,SKC,0.00,VWS V14.00,2013-03-15 05:03:00,
2013-03-15 01:08:00,39.0,19.0,29.21,SSW,208,0.0,0.0,44,0.00,,SKC,0.00,VWS V14.00,2013-03-15 05:08:00,
2013-03-15 01:13:00,39.0,19.0,29.21,SSW,208,0.0,0.0,44,0.00,,SKC,0.00,VWS V14.00,2013-03-15 05:13:00,
2013-03-15 01:18:00,39.0,19.5,29.21,SSW,208,0.0,0.0,45,0.00,,SKC,0.00,VWS V14.00,2013-03-15 05:18:00,
2013-03-15 01:23:00,39.0,19.5,29.21,SW,217,0.0,0.0,45,0.00,,SKC,0.00,VWS V14.00,2013-03-15 05:23:00,
2013-03-15 01:28:00,39.2,19.7,29.21,SW,217,0.0,0.0,45,0.00,,SKC,0.00,VWS V14.00,2013-03-15 05:28:00,
2013-03-15 01:33:00,39.2,19.7,29.21,SSE,157,0.0,0.0,45,0.00,,SKC,0.00,VWS V14.00,2013-03-15 05:33:00,
2013-03-15 01:38:00,39.2,19.7,29.21,SSW,205,0.0,0.0,45,0.00,,SKC,0.00,VWS V14.00,2013-03-15 05:38:00,
2013-03-15 01:43:00,39.2,19.7,29.21,SSW,205,0.0,0.0,45,0.00,,SKC,0.00,VWS V14.00,2013-03-15 05:43:00,
2013-03-15 01:48:00,39.2,19.7,29.21,SSW,205,0.0,0.0,45,0.00,,SKC,0.00,VWS V14.00,2013-03-15 05:48:00,
2013-03-15 01:53:00,39.2,19.7,29.21,SSW,199,0.0,0.0,45,0.00,,SKC,0.00,VWS V14.00,2013-03-15 05:53:00,
2013-03-15 01:58:00,39.2,20.2,29.21,SSW,199,0.0,0.0,46,0.00,,SKC,0.00,VWS V14.00,2013-03-15 05:58:00,
2013-03-15 02:03:00,39.2,20.2,29.18,SSW,199,0.0,0.0,46,0.00,,SKC,0.00,VWS V14.00,2013-03-15 06:03:00,
2013-03-15 02:08:00,39.2,20.2,29.18,SSW,199,0.0,0.0,46,0.00,,SKC,0.00,VWS V14.00,2013-03-15 06:08:00,
2013-03-15 02:13:00,39.2,20.2,29.18,SSW,199,0.0,0.0,46,0.00,,SKC,0.00,VWS V14.00,2013-03-15 06:13:00,
2013-03-15 02:18:00,39.2,20.7,29.18,SSW,198,0.0,0.0,47,0.00,,SKC,0.00,VWS V14.00,2013-03-15 06:18:00,
2013-03-15 02:23:00,39.4,20.8,29.18,SSW,198,0.0,0.0,47,0.00,,SKC,0.00,VWS V14.00,2013-03-15 06:23:00,
2013-03-15 02:28:00,39.4,20.8,29.18,SSW,198,0.0,0.0,47,0.00,,SKC,0.00,VWS V14.00,2013-03-15 06:28:00,
2013-03-15 02:33:00,39.4,20.8,29.18,SSW,198,0.0,0.0,47,0.00,,SKC,0.00,VWS V14.00,2013-03-15 06:33:00,
2013-03-15 02:38:00,39.4,21.3,29.18,South,187,0.0,0.0,48,0.00,,SKC,0.00,VWS V14.00,2013-03-15 06:38:00,
2013-03-15 02:43:00,39.2,21.2,29.18,SSE,160,3.2,3.2,48,0.00,,SKC,0.00,VWS V14.00,2013-03-15 06:43:00,
2013-03-15 02:48:00,39.2,21.2,29.18,SSW,192,0.0,2.7,48,0.00,,SKC,0.00,VWS V14.00,2013-03-15 06:48:00,
2013-03-15 02:53:00,39.2,21.2,29.18,SSW,192,0.0,0.0,48,0.00,,SKC,0.00,VWS V14.00,2013-03-15 06:53:00,
2013-03-15 02:58:00,39.2,21.2,29.18,SSW,192,0.0,0.0,48,0.00,,SKC,0.00,VWS V14.00,2013-03-15 06:58:00,
2013-03-15 03:03:00,39.0,21.5,29.18,SSW,192,0.0,0.0,49,0.00,,SKC,0.00,VWS V14.00,2013-03-15 07:03:00,
2013-03-15 03:08:00,39.0,21.5,29.18,SSW,192,0.0,0.0,49,0.00,,SKC,0.00,VWS V14.00,2013-03-15 07:08:00,
2013-03-15 03:13:00,38.8,21.3,29.18,SSW,192,0.0,0.0,49,0.00,,SKC,0.00,VWS V14.00,2013-03-15 07:13:00,
2013-03-15 03:18:00,38.8,21.3,29.18,SSW,192,0.0,0.0,49,0.00,,SKC,0.00,VWS V14.00,2013-03-15 07:18:00,
2013-03-15 03:23:00,38.7,21.2,29.18,SSW,192,0.0,0.0,49,0.00,,SKC,0.00,VWS V14.00,2013-03-15 07:23:00,
2013-03-15 03:28:00,38.5,21.0,29.18,SSW,192,0.0,0.0,49,0.00,,SKC,0.00,VWS V14.00,2013-03-15 07:28:00,
2013-03-15 03:33:00,38.3,20.8,29.18,SSW,192,0.0,0.0,49,0.00,,SKC,0.00,VWS V14.00,2013-03-15 07:33:00,
2013-03-15 03:38:00,38.1,20.7,29.18,SSW,192,0.0,0.0,49,0.00,,SKC,0.00,VWS V14.00,2013-03-15 07:38:00,
2013-03-15 03:43:00,37.9,20.5,29.18,SSW,192,0.0,0.0,49,0.00,,SKC,0.00,VWS V14.00,2013-03-15 07:43:00,
2013-03-15 03:48:00,37.9,20.5,29.18,SSW,192,0.0,0.0,49,0.00,,SKC,0.00,VWS V14.00,2013-03-15 07:48:00,
2013-03-15 03:53:00,37.8,20.3,29.18,SSW,192,0.0,0.0,49,0.00,,SKC,0.00,VWS V14.00,2013-03-15 07:53:00,
2013-03-15 03:58:00,37.6,20.2,29.18,SSW,192,0.0,0.0,49,0.00,,SKC,0.00,VWS V14.00,2013-03-15 07:58:00,
2013-03-15 04:03:00,37.4,20.5,29.15,SSW,192,0.0,0.0,50,0.00,,SKC,0.00,VWS V14.00,2013-03-15 08:03:00,
2013-03-15 04:08:00,37.0,20.1,29.15,SSW,192,0.0,0.0,50,0.00,,SKC,0.00,VWS V14.00,2013-03-15 08:08:00,
2013-03-15 04:13:00,37.0,20.1,29.15,SSW,192,0.0,0.0,50,0.00,,SKC,0.00,VWS V14.00,2013-03-15 08:13:00,
2013-03-15 04:18:00,37.0,20.1,29.15,SSW,192,0.0,0.0,50,0.00,,SKC,0.00,VWS V14.00,2013-03-15 08:18:00,
2013-03-15 04:23:00,37.0,20.1,29.15,SSW,192,0.0,0.0,50,0.00,,SKC,0.00,VWS V14.00,2013-03-15 08:23:00,
2013-03-15 04:28:00,36.9,20.0,29.15,SSW,192,0.0,0.0,50,0.00,,SKC,0.00,VWS V14.00,2013-03-15 08:28:00,
2013-03-15 04:33:00,36.9,20.4,29.15,SSW,192,0.0,0.0,51,0.00,,SKC,0.00,VWS V14.00,2013-03-15 08:33:00,
2013-03-15 04:38:00,36.9,20.4,29.15,SSW,192,0.0,0.0,51,0.00,,SKC,0.00,VWS V14.00,2013-03-15 08:38:00,
2013-03-15 04:43:00,36.7,20.3,29.15,SSW,192,0.0,0.0,51,0.00,,SKC,0.00,VWS V14.00,2013-03-15 08:43:00,
2013-03-15 04:48:00,36.7,20.3,29.12,SSW,192,0.0,0.0,51,0.00,,SKC,0.00,VWS V14.00,2013-03-15 08:48:00,
2013-03-15 04:53:00,36.5,20.1,29.12,SSW,192,0.0,0.0,51,0.00,,SKC,0.00,VWS V14.00,2013-03-15 08:53:00,
2013-03-15 04:59:00,36.1,19.8,29.12,SSW,192,0.0,0.0,51,0.00,,SKC,0.00,VWS V14.00,2013-03-15 08:59:00,
2013-03-15 05:04:00,36.0,19.6,29.12,SSW,192,0.0,0.0,51,0.00,,SKC,0.00,VWS V14.00,2013-03-15 09:04:00,
2013-03-15 05:09:00,36.0,19.6,29.12,SSW,192,0.0,0.0,51,0.00,,SKC,0.00,VWS V14.00,2013-03-15 09:09:00,
2013-03-15 05:14:00,35.8,19.4,29.12,SSW,192,0.0,0.0,51,0.00,,SKC,0.00,VWS V14.00,2013-03-15 09:14:00,
2013-03-15 05:19:00,35.6,19.3,29.12,SSW,192,0.0,0.0,51,0.00,,SKC,0.00,VWS V14.00,2013-03-15 09:19:00,
2013-03-15 05:24:00,35.6,19.3,29.12,SSW,192,0.0,0.0,51,0.00,,SKC,0.00,VWS V14.00,2013-03-15 09:24:00,
2013-03-15 05:29:00,35.4,19.6,29.12,SSW,192,0.0,0.0,52,0.00,,SKC,0.00,VWS V14.00,2013-03-15 09:29:00,
2013-03-15 05:34:00,35.4,19.6,29.12,SSW,192,0.0,0.0,52,0.00,,SKC,0.00,VWS V14.00,2013-03-15 09:34:00,
2013-03-15 05:39:00,35.4,19.6,29.12,SSW,192,0.0,0.0,52,0.00,,SKC,0.00,VWS V14.00,2013-03-15 09:39:00,
2013-03-15 05:44:00,35.4,19.6,29.12,SSW,192,0.0,0.0,52,0.00,,SKC,0.00,VWS V14.00,2013-03-15 09:44:00,
2013-03-15 05:49:00,35.2,19.4,29.12,SSW,192,0.0,0.0,52,0.00,,SKC,0.00,VWS V14.00,2013-03-15 09:49:00,
2013-03-15 05:54:00,35.1,19.2,29.12,SSW,192,0.0,0.0,52,0.00,,SKC,0.00,VWS V14.00,2013-03-15 09:54:00,
2013-03-15 05:59:00,34.9,19.1,29.12,SSW,192,0.0,0.0,52,0.00,,SKC,0.00,VWS V14.00,2013-03-15 09:59:00,
2013-03-15 06:04:00,34.9,19.1,29.12,SSW,192,0.0,0.0,52,0.00,,SKC,0.00,VWS V14.00,2013-03-15 10:04:00,
2013-03-15 06:09:00,34.5,19.2,29.12,SSW,192,0.0,0.0,53,0.00,,SKC,0.00,VWS V14.00,2013-03-15 10:09:00,
2013-03-15 06:14:00,34.3,19.0,29.12,SSW,192,0.0,0.0,53,0.00,,SKC,0.00,VWS V14.00,2013-03-15 10:14:00,
2013-03-15 06:19:00,34.0,18.7,29.12,SSW,192,0.0,0.0,53,0.00,,SKC,0.00,VWS V14.00,2013-03-15 10:19:00,
2013-03-15 06:24:00,34.0,18.7,29.12,SSW,192,0.0,0.0,53,0.00,,SKC,0.00,VWS V14.00,2013-03-15 10:24:00,
2013-03-15 06:29:00,34.0,18.7,29.12,SSW,192,0.0,0.0,53,0.00,,SKC,0.00,VWS V14.00,2013-03-15 10:29:00,
2013-03-15 06:34:00,34.0,18.7,29.12,SSW,192,0.0,0.0,53,0.00,,SKC,0.00,VWS V14.00,2013-03-15 10:34:00,
2013-03-15 06:39:00,33.8,18.5,29.12,SSW,192,0.0,0.0,53,0.00,,SKC,0.00,VWS V14.00,2013-03-15 10:39:00,
2013-03-15 06:44:00,33.8,18.9,29.12,SSW,192,0.0,0.0,54,0.00,,SKC,0.00,VWS V14.00,2013-03-15 10:44:00,
2013-03-15 06:49:00,33.8,18.9,29.09,SSW,192,0.0,0.0,54,0.00,,SKC,0.00,VWS V14.00,2013-03-15 10:49:00,
2013-03-15 06:54:00,33.6,18.8,29.09,SSW,192,0.0,0.0,54,0.00,,SKC,0.00,VWS V14.00,2013-03-15 10:54:00,
2013-03-15 06:59:00,33.4,18.6,29.09,SSW,192,0.0,0.0,54,0.00,,SKC,0.00,VWS V14.00,2013-03-15 10:59:00,
2013-03-15 07:04:00,33.3,18.4,29.12,SSW,192,0.0,0.0,54,0.00,,SKC,0.00,VWS V14.00,2013-03-15 11:04:00,
2013-03-15 07:09:00,33.3,18.4,29.12,SSW,192,0.0,0.0,54,0.00,,SKC,0.00,VWS V14.00,2013-03-15 11:09:00,
2013-03-15 07:14:00,33.1,18.3,29.12,SSW,192,0.0,0.0,54,0.00,,SKC,0.00,VWS V14.00,2013-03-15 11:14:00,
2013-03-15 07:19:00,33.1,18.7,29.12,SSW,192,0.0,0.0,55,0.00,,SKC,0.00,VWS V14.00,2013-03-15 11:19:00,
2013-03-15 07:24:00,33.1,18.7,29.12,SSW,192,0.0,0.0,55,0.00,,SKC,0.00,VWS V14.00,2013-03-15 11:24:00,
2013-03-15 07:29:00,33.1,18.7,29.12,SSW,192,0.0,0.0,55,0.00,,SKC,0.00,VWS V14.00,2013-03-15 11:29:00,
2013-03-15 07:34:00,32.9,18.5,29.12,SSW,192,0.0,0.0,55,0.00,,SKC,0.00,VWS V14.00,2013-03-15 11:34:00,
2013-03-15 07:39:00,32.7,18.4,29.12,SSW,192,0.0,0.0,55,0.00,,SKC,0.00,VWS V14.00,2013-03-15 11:39:00,
2013-03-15 07:44:00,32.9,18.9,29.12,SSW,192,0.0,0.0,56,0.00,,SKC,0.00,VWS V14.00,2013-03-15 11:44:00,
2013-03-15 07:49:00,33.1,19.1,29.12,SSW,192,0.0,0.0,56,0.00,,SKC,0.00,VWS V14.00,2013-03-15 11:49:00,
2013-03-15 07:54:00,33.3,19.3,29.12,SSW,192,0.0,0.0,56,0.00,,SKC,0.00,VWS V14.00,2013-03-15 11:54:00,
2013-03-15 07:59:00,33.6,19.6,29.12,SSW,192,0.0,0.0,56,0.00,,SKC,0.00,VWS V14.00,2013-03-15 11:59:00,
2013-03-15 08:04:00,33.6,20.0,29.12,SSW,192,0.0,0.0,57,0.00,,SKC,0.00,VWS V14.00,2013-03-15 12:04:00,
2013-03-15 08:09:00,33.6,20.0,29.12,SSW,192,0.0,0.0,57,0.00,,SKC,0.00,VWS V14.00,2013-03-15 12:09:00,
2013-03-15 08:14:00,33.6,20.0,29.12,SSW,192,0.0,0.0,57,0.00,,SKC,0.00,VWS V14.00,2013-03-15 12:14:00,
2013-03-15 08:19:00,33.6,20.0,29.09,SSW,192,0.0,0.0,57,0.00,,SKC,0.00,VWS V14.00,2013-03-15 12:19:00,
2013-03-15 08:24:00,33.6,20.0,29.09,SSW,192,0.0,0.0,57,0.00,,SKC,0.00,VWS V14.00,2013-03-15 12:24:00,
2013-03-15 08:29:00,33.6,20.0,29.09,SSW,192,0.0,0.0,57,0.00,,SKC,0.00,VWS V14.00,2013-03-15 12:29:00,
2013-03-15 08:34:00,33.8,20.2,29.09,SSW,192,0.0,0.0,57,0.00,,SKC,0.00,VWS V14.00,2013-03-15 12:34:00,
2013-03-15 08:39:00,34.0,20.4,29.09,SSW,192,0.0,0.0,57,0.00,,SKC,0.00,VWS V14.00,2013-03-15 12:39:00,
2013-03-15 08:44:00,34.0,20.4,29.09,SSW,192,0.0,0.0,57,0.00,,SKC,0.00,VWS V14.00,2013-03-15 12:44:00,
2013-03-15 08:49:00,34.3,20.7,29.09,SSW,192,0.0,0.0,57,0.00,,SKC,0.00,VWS V14.00,2013-03-15 12:49:00,
2013-03-15 08:54:00,34.3,20.7,29.09,SSW,192,0.0,0.0,57,0.00,,SKC,0.00,VWS V14.00,2013-03-15 12:54:00,
2013-03-15 08:59:00,34.7,21.5,29.09,SSW,192,0.0,0.0,58,0.00,,SKC,0.00,VWS V14.00,2013-03-15 12:59:00,
2013-03-15 09:04:00,34.9,21.6,29.09,SSW,192,0.0,0.0,58,0.00,,SKC,0.00,VWS V14.00,2013-03-15 13:04:00,
2013-03-15 09:09:00,35.1,21.8,29.09,SSW,192,0.0,0.0,58,0.00,,SKC,0.00,VWS V14.00,2013-03-15 13:09:00,
2013-03-15 09:14:00,35.4,22.1,29.09,SSW,192,0.0,0.0,58,0.00,,SKC,0.00,VWS V14.00,2013-03-15 13:14:00,
2013-03-15 09:19:00,35.8,22.5,29.09,SSW,192,0.0,0.0,58,0.00,,SKC,0.00,VWS V14.00,2013-03-15 13:19:00,
2013-03-15 09:24:00,36.3,23.4,29.09,NW,307,0.0,0.0,59,0.00,,SKC,0.00,VWS V14.00,2013-03-15 13:24:00,
2013-03-15 09:29:00,36.9,24.3,29.09,NW,325,0.0,0.0,60,0.00,,SKC,0.00,VWS V14.00,2013-03-15 13:29:00,
2013-03-15 09:34:00,37.6,25.0,29.09,WSW,246,0.0,0.0,60,0.00,,SKC,0.00,VWS V14.00,2013-03-15 13:34:00,
2013-03-15 09:39:00,37.8,24.7,29.09,SW,225,0.0,3.6,59,0.00,,SKC,0.00,VWS V14.00,2013-03-15 13:39:00,
2013-03-15 09:44:00,38.1,25.5,29.09,SSW,210,0.0,3.1,60,0.00,,SKC,0.00,VWS V14.00,2013-03-15 13:44:00,
2013-03-15 09:49:00,38.7,26.0,29.09,NW,309,0.0,3.1,60,0.00,,SKC,0.00,VWS V14.00,2013-03-15 13:49:00,
2013-03-15 09:54:00,39.2,26.5,29.09,SSW,202,0.0,0.0,60,0.00,,SKC,0.00,VWS V14.00,2013-03-15 13:54:00,
2013-03-15 09:59:00,39.6,26.8,29.09,SSW,200,2.7,4.0,60,0.00,,SKC,0.00,VWS V14.00,2013-03-15 13:59:00,
2013-03-15 10:04:00,39.9,27.2,29.09,SSW,209,3.2,4.0,60,0.00,,SKC,0.00,VWS V14.00,2013-03-15 14:04:00,
2013-03-15 10:09:00,40.5,27.7,29.09,SW,219,0.0,5.4,60,0.00,,SKC,0.00,VWS V14.00,2013-03-15 14:09:00,
2013-03-15 10:14:00,40.6,27.5,29.09,SW,215,2.7,4.0,59,0.00,,SKC,0.00,VWS V14.00,2013-03-15 14:14:00,
2013-03-15 10:19:00,41.0,27.8,29.09,SSW,213,3.2,4.0,59,0.00,,SKC,0.00,VWS V14.00,2013-03-15 14:19:00,
2013-03-15 10:24:00,41.4,28.1,29.09,SSW,196,0.0,3.6,59,0.00,,SKC,0.00,VWS V14.00,2013-03-15 14:24:00,
2013-03-15 10:29:00,41.7,28.5,29.09,South,186,3.8,4.0,59,0.00,,SKC,0.00,VWS V14.00,2013-03-15 14:29:00,
2013-03-15 10:34:00,42.1,28.8,29.06,South,184,0.0,3.6,59,0.00,,SKC,0.00,VWS V14.00,2013-03-15 14:34:00,
2013-03-15 10:39:00,42.6,29.3,29.06,SW,223,0.0,3.6,59,0.00,,SKC,0.00,VWS V14.00,2013-03-15 14:39:00,
2013-03-15 10:44:00,43.2,29.4,29.06,SSW,210,0.0,3.6,58,0.00,,SKC,0.00,VWS V14.00,2013-03-15 14:44:00,
2013-03-15 10:49:00,43.7,30.3,29.06,SSW,203,0.0,4.0,59,0.00,,SKC,0.00,VWS V14.00,2013-03-15 14:49:00,
2013-03-15 10:54:00,44.2,30.4,29.06,SSW,207,3.8,4.0,58,0.00,,SKC,0.00,VWS V14.00,2013-03-15 14:54:00,
2013-03-15 10:59:00,45.0,31.1,29.06,SSW,197,4.3,4.3,58,0.00,,SKC,0.00,VWS V14.00,2013-03-15 14:59:00,
2013-03-15 11:04:00,45.7,31.8,29.06,WSW,246,3.8,3.8,58,0.00,,SKC,0.00,VWS V14.00,2013-03-15 15:04:00,
2013-03-15 11:09:00,46.6,32.2,29.06,SW,218,3.8,4.9,57,0.00,,SKC,0.00,VWS V14.00,2013-03-15 15:09:00,
2013-03-15 11:14:00,47.3,32.8,29.06,NW,305,0.0,6.3,57,0.00,,SKC,0.00,VWS V14.00,2013-03-15 15:14:00,
2013-03-15 11:20:00,47.8,32.9,29.06,NW,324,6.4,7.2,56,0.00,,SKC,0.00,VWS V14.00,2013-03-15 15:20:00,
2013-03-15 11:25:00,48.2,32.8,29.06,WSW,239,0.0,5.4,55,0.00,,SKC,0.00,VWS V14.00,2013-03-15 15:25:00,
2013-03-15 11:30:00,48.7,33.3,29.06,WNW,297,5.9,5.9,55,0.00,,SKC,0.00,VWS V14.00,2013-03-15 15:30:00,
2013-03-15 11:35:00,49.3,33.8,29.06,WSW,240,3.2,5.4,55,0.00,,SKC,0.00,VWS V14.00,2013-03-15 15:35:00,
2013-03-15 11:40:00,49.8,34.3,29.06,SW,235,3.8,5.4,55,0.00,,SKC,0.00,VWS V14.00,2013-03-15 15:40:00,
2013-03-15 11:45:00,50.4,34.4,29.06,West,264,0.0,5.4,54,0.00,,SKC,0.00,VWS V14.00,2013-03-15 15:45:00,
2013-03-15 11:50:00,51.4,34.9,29.06,West,264,5.9,9.6,53,0.00,,SKC,0.00,VWS V14.00,2013-03-15 15:50:00,
2013-03-15 11:55:00,52.2,35.1,29.06,West,264,0.0,8.1,52,0.00,,SKC,0.00,VWS V14.00,2013-03-15 15:55:00,
2013-03-15 12:00:00,52.7,35.1,29.06,SW,220,3.8,8.1,51,0.00,,SKC,0.00,VWS V14.00,2013-03-15 16:00:00,
2013-03-15 12:05:00,53.4,35.8,29.03,WSW,247,7.0,7.0,51,0.00,,SKC,0.00,VWS V14.00,2013-03-15 16:05:00,
2013-03-15 12:10:00,54.1,35.9,29.03,SSW,211,4.8,8.3,50,0.00,,SKC,0.00,VWS V14.00,2013-03-15 16:10:00,
2013-03-15 12:15:00,54.5,35.8,29.03,WSW,237,0.0,5.8,49,0.00,,SKC,0.00,VWS V14.00,2013-03-15 16:15:00,
2013-03-15 12:20:00,55.2,36.4,29.03,West,259,4.3,5.8,49,0.00,,SKC,0.00,VWS V14.00,2013-03-15 16:20:00,
2013-03-15 12:25:00,55.9,37.1,29.03,SW,229,4.3,5.8,49,0.00,,SKC,0.00,VWS V14.00,2013-03-15 16:25:00,
2013-03-15 12:30:00,56.5,37.0,29.03,SW,220,0.0,7.6,48,0.00,,SKC,0.00,VWS V14.00,2013-03-15 16:30:00,
2013-03-15 12:35:00,57.0,37.5,29.03,NNW,327,3.8,7.2,48,0.00,,SKC,0.00,VWS V14.00,2013-03-15 16:35:00,
2013-03-15 12:40:00,57.7,37.1,29.03,SW,225,3.2,7.2,46,0.00,,SKC,0.00,VWS V14.00,2013-03-15 16:40:00,
2013-03-15 12:45:00,58.5,37.8,29.03,SW,225,2.7,6.3,46,0.00,,SKC,0.00,VWS V14.00,2013-03-15 16:45:00,
2013-03-15 12:50:00,59.0,38.3,29.00,WSW,248,4.8,6.3,46,0.00,,SKC,0.00,VWS V14.00,2013-03-15 16:50:00,
2013-03-15 12:55:00,59.5,38.8,29.00,SSW,200,4.3,8.1,46,0.00,,SKC,0.00,VWS V14.00,2013-03-15 16:55:00,
2013-03-15 13:00:00,60.3,38.8,29.00,SSW,198,3.8,8.7,45,0.00,,SKC,0.00,VWS V14.00,2013-03-15 17:00:00,
2013-03-15 13:05:00,60.6,39.2,29.00,SW,232,6.4,6.4,45,0.00,,SKC,0.00,VWS V14.00,2013-03-15 17:05:00,
2013-03-15 13:10:00,61.2,39.1,29.00,SW,226,6.4,8.7,44,0.00,,SKC,0.00,VWS V14.00,2013-03-15 17:10:00,
2013-03-15 13:15:00,61.7,39.6,29.00,SW,231,0.0,8.1,44,0.00,,SKC,0.00,VWS V14.00,2013-03-15 17:15:00,
2013-03-15 13:20:00,62.4,39.7,29.00,SSW,208,0.0,8.1,43,0.00,,SKC,0.00,VWS V14.00,2013-03-15 17:20:00,
2013-03-15 13:25:00,63.0,39.5,29.00,WSW,257,3.2,5.8,42,0.00,,SKC,0.00,VWS V14.00,2013-03-15 17:25:00,
2013-03-15 13:30:00,63.3,39.2,29.00,West,272,3.2,8.3,41,0.00,,SKC,0.00,VWS V14.00,2013-03-15 17:30:00,
2013-03-15 13:35:00,63.9,39.7,29.00,South,177,7.5,7.5,41,0.00,,SKC,0.00,VWS V14.00,2013-03-15 17:35:00,
2013-03-15 13:40:00,64.4,40.2,29.00,SSW,201,3.8,6.3,41,0.00,,SKC,0.00,VWS V14.00,2013-03-15 17:40:00,
2013-03-15 13:45:00,65.1,40.2,29.00,WSW,239,0.0,5.8,40,0.00,,SKC,0.00,VWS V14.00,2013-03-15 17:45:00,
2013-03-15 13:50:00,65.7,40.7,29.00,WNW,283,5.9,7.6,40,0.00,,SKC,0.00,VWS V14.00,2013-03-15 17:50:00,
2013-03-15 13:55:00,66.0,39.7,29.00,West,265,5.9,5.9,38,0.00,,SKC,0.00,VWS V14.00,2013-03-15 17:55:00,
2013-03-15 14:00:00,66.2,39.9,29.00,SW,231,4.3,6.3,38,0.00,,SKC,0.00,VWS V14.00,2013-03-15 18:00:00,
2013-03-15 14:05:00,66.6,40.2,28.97,SW,231,8.6,8.6,38,0.00,,SKC,0.00,VWS V14.00,2013-03-15 18:05:00,
2013-03-15 14:10:00,66.9,39.8,28.97,SSW,203,7.0,9.6,37,0.00,,SKC,0.00,VWS V14.00,2013-03-15 18:10:00,
2013-03-15 14:15:00,67.1,40.0,28.97,SW,236,4.3,6.7,37,0.00,,SKC,0.00,VWS V14.00,2013-03-15 18:15:00,
2013-03-15 14:20:00,67.5,40.3,28.97,SW,234,4.3,10.5,37,0.00,,SKC,0.00,VWS V14.00,2013-03-15 18:20:00,
2013-03-15 14:25:00,67.6,39.8,28.97,WSW,237,3.2,6.3,36,0.00,,SKC,0.00,VWS V14.00,2013-03-15 18:25:00,
2013-03-15 14:30:00,67.5,38.1,28.97,WSW,244,7.0,8.7,34,0.00,,SKC,0.00,VWS V14.00,2013-03-15 18:30:00,
2013-03-15 14:35:00,66.9,38.4,28.97,WSW,249,3.2,8.7,35,0.00,,SKC,0.00,VWS V14.00,2013-03-15 18:35:00,
2013-03-15 14:40:00,67.1,38.6,28.97,NNW,337,6.4,6.4,35,0.00,,SKC,0.00,VWS V14.00,2013-03-15 18:40:00,
2013-03-15 14:45:00,67.6,39.0,28.97,WSW,246,0.0,6.3,35,0.00,,SKC,0.00,VWS V14.00,2013-03-15 18:45:00,
2013-03-15 14:50:00,67.8,39.2,28.97,WSW,239,3.8,3.8,35,0.00,,SKC,0.00,VWS V14.00,2013-03-15 18:50:00,
2013-03-15 14:55:00,68.2,39.5,28.97,SW,235,0.0,6.3,35,0.00,,SKC,0.00,VWS V14.00,2013-03-15 18:55:00,
2013-03-15 15:00:00,68.0,38.6,28.97,SW,223,5.9,5.9,34,0.00,,SKC,0.00,VWS V14.00,2013-03-15 19:00:00,
2013-03-15 15:05:00,67.8,39.2,28.94,WSW,249,0.0,5.4,35,0.00,,SKC,0.00,VWS V14.00,2013-03-15 19:05:00,
2013-03-15 15:10:00,67.8,38.5,28.94,NW,322,0.0,0.0,34,0.00,,SKC,0.00,VWS V14.00,2013-03-15 19:10:00,
2013-03-15 15:15:00,67.8,39.2,28.94,WSW,248,6.4,8.1,35,0.00,,SKC,0.00,VWS V14.00,2013-03-15 19:15:00,
2013-03-15 15:20:00,68.0,38.6,28.94,WSW,239,7.0,7.0,34,0.00,,SKC,0.00,VWS V14.00,2013-03-15 19:20:00,
2013-03-15 15:25:00,67.8,39.2,28.94,WSW,247,4.8,5.8,35,0.00,,SKC,0.00,VWS V14.00,2013-03-15 19:25:00,
2013-03-15 15:30:00,67.5,38.9,28.94,SW,232,0.0,0.0,35,0.00,,SKC,0.00,VWS V14.00,2013-03-15 19:30:00,
2013-03-15 15:35:00,67.5,38.1,28.91,SSW,201,6.4,6.4,34,0.00,,SKC,0.00,VWS V14.00,2013-03-15 19:35:00,
2013-03-15 15:40:00,67.5,38.9,28.91,SSW,205,6.4,7.2,35,0.00,,SKC,0.00,VWS V14.00,2013-03-15 19:40:00,
2013-03-15 15:45:00,67.8,39.2,28.91,SSW,201,3.8,7.2,35,0.00,,SKC,0.00,VWS V14.00,2013-03-15 19:45:00,
2013-03-15 15:50:00,68.0,38.6,28.91,NNW,327,4.3,4.3,34,0.00,,SKC,0.00,VWS V14.00,2013-03-15 19:50:00,
2013-03-15 15:55:00,68.4,38.9,28.91,WSW,241,0.0,6.3,34,0.00,,SKC,0.00,VWS V14.00,2013-03-15 19:55:00,
2013-03-15 16:00:00,68.5,39.1,28.91,WSW,237,0.0,2.2,34,0.00,,SKC,0.00,VWS V14.00,2013-03-15 20:00:00,
2013-03-15 16:05:00,68.5,39.1,28.91,SSW,210,3.8,6.3,34,0.00,,SKC,0.00,VWS V14.00,2013-03-15 20:05:00,
2013-03-15 16:10:00,68.7,39.2,28.91,ESE,111,3.2,3.2,34,0.00,,SKC,0.00,VWS V14.00,2013-03-15 20:10:00,
2013-03-15 16:15:00,68.9,39.4,28.91,SSW,194,0.0,5.4,34,0.00,,SKC,0.00,VWS V14.00,2013-03-15 20:15:00,
2013-03-15 16:20:00,69.3,39.7,28.91,SW,221,0.0,2.7,34,0.00,,SKC,0.00,VWS V14.00,2013-03-15 20:20:00,
2013-03-15 16:25:00,69.8,39.4,28.91,NW,310,3.2,5.4,33,0.00,,SKC,0.00,VWS V14.00,2013-03-15 20:25:00,
2013-03-15 16:30:00,69.6,39.3,28.91,SW,224,4.8,4.8,33,0.00,,SKC,0.00,VWS V14.00,2013-03-15 20:30:00,
2013-03-15 16:35:00,69.3,39.0,28.91,ESE,109,3.2,8.7,33,0.00,,SKC,0.00,VWS V14.00,2013-03-15 20:35:00,
2013-03-15 16:40:00,68.9,38.6,28.91,WSW,248,0.0,2.2,33,0.00,,SKC,0.00,VWS V14.00,2013-03-15 20:40:00,
2013-03-15 16:45:00,68.5,38.3,28.91,WNW,300,4.8,4.8,33,0.00,,SKC,0.00,VWS V14.00,2013-03-15 20:45:00,
2013-03-15 16:50:00,68.2,38.0,28.88,SSW,209,3.8,4.0,33,0.00,,SKC,0.00,VWS V14.00,2013-03-15 20:50:00,
2013-03-15 16:55:00,68.2,38.8,28.88,WSW,255,0.0,5.4,34,0.00,,SKC,0.00,VWS V14.00,2013-03-15 20:55:00,
2013-03-15 17:00:00,68.7,39.2,28.88,SW,233,4.3,4.3,34,0.00,,SKC,0.00,VWS V14.00,2013-03-15 21:00:00,
2013-03-15 17:05:00,69.1,39.6,28.88,SSW,212,2.7,5.8,34,0.00,,SKC,0.00,VWS V14.00,2013-03-15 21:05:00,
2013-03-15 17:10:00,69.3,39.0,28.88,West,260,3.8,3.8,33,0.00,,SKC,0.00,VWS V14.00,2013-03-15 21:10:00,
2013-03-15 17:15:00,69.1,38.8,28.88,SW,222,7.0,8.3,33,0.00,,SKC,0.00,VWS V14.00,2013-03-15 21:15:00,
2013-03-15 17:20:00,69.1,38.8,28.88,SW,227,5.4,5.4,33,0.00,,SKC,0.00,VWS V14.00,2013-03-15 21:20:00,
2013-03-15 17:25:00,68.9,38.6,28.88,SSW,204,3.2,5.4,33,0.00,,SKC,0.00,VWS V14.00,2013-03-15 21:25:00,
2013-03-15 17:30:00,68.7,38.5,28.88,West,270,7.5,7.5,33,0.00,,SKC,0.00,VWS V14.00,2013-03-15 21:30:00,
2013-03-15 17:35:00,68.5,38.3,28.88,SSW,212,4.3,8.1,33,0.00,,SKC,0.00,VWS V14.00,2013-03-15 21:35:00,
2013-03-15 17:40:00,68.4,38.2,28.88,SW,234,0.0,2.7,33,0.00,,SKC,0.00,VWS V14.00,2013-03-15 21:40:00,
2013-03-15 17:45:00,68.2,38.0,28.88,SSE,151,5.9,8.3,33,0.00,,SKC,0.00,VWS V14.00,2013-03-15 21:45:00,
2013-03-15 17:50:00,68.2,38.0,28.88,South,184,0.0,4.0,33,0.00,,SKC,0.00,VWS V14.00,2013-03-15 21:50:00,
2013-03-15 17:55:00,68.2,38.0,28.88,SW,230,4.3,5.8,33,0.00,,SKC,0.00,VWS V14.00,2013-03-15 21:55:00,
2013-03-15 18:00:00,68.0,37.8,28.88,SW,218,4.3,4.3,33,0.00,,SKC,0.00,VWS V14.00,2013-03-15 22:00:00,
2013-03-15 18:05:00,68.0,37.8,28.88,South,187,4.3,6.3,33,0.00,,SKC,0.00,VWS V14.00,2013-03-15 22:05:00,
2013-03-15 18:10:00,67.8,38.5,28.88,South,176,6.4,6.4,34,0.00,,SKC,0.00,VWS V14.00,2013-03-15 22:10:00,
2013-03-15 18:16:00,67.8,38.5,28.88,West,274,0.0,5.8,34,0.00,,SKC,0.00,VWS V14.00,2013-03-15 22:16:00,
2013-03-15 18:21:00,67.6,38.3,28.88,SSW,205,3.8,3.8,34,0.00,,SKC,0.00,VWS V14.00,2013-03-15 22:21:00,
2013-03-15 18:26:00,67.5,38.1,28.88,WSW,245,3.2,6.7,34,0.00,,SKC,0.00,VWS V14.00,2013-03-15 22:26:00,
2013-03-15 18:31:00,67.3,38.0,28.88,South,187,0.0,2.2,34,0.00,,SKC,0.00,VWS V14.00,2013-03-15 22:31:00,
2013-03-15 18:36:00,66.9,37.7,28.85,NW,319,7.0,7.0,34,0.00,,SKC,0.00,VWS V14.00,2013-03-15 22:36:00,
2013-03-15 18:41:00,66.9,37.7,28.85,SW,224,0.0,0.0,34,0.00,,SKC,0.00,VWS V14.00,2013-03-15 22:41:00,
2013-03-15 18:46:00,66.7,37.5,28.85,SW,236,3.8,5.4,34,0.00,,SKC,0.00,VWS V14.00,2013-03-15 22:46:00,
2013-03-15 18:51:00,66.7,37.5,28.85,WSW,238,0.0,0.0,34,0.00,,SKC,0.00,VWS V14.00,2013-03-15 22:51:00,
2013-03-15 18:56:00,66.6,37.3,28.85,SSW,213,0.0,6.3,34,0.00,,SKC,0.00,VWS V14.00,2013-03-15 22:56:00,
2013-03-15 19:01:00,66.2,37.0,28.85,SW,232,2.7,3.1,34,0.00,,SKC,0.00,VWS V14.00,2013-03-15 23:01:00,
2013-03-15 19:06:00,65.8,37.5,28.85,SW,223,0.0,7.6,35,0.00,,SKC,0.00,VWS V14.00,2013-03-15 23:06:00,
2013-03-15 19:11:00,65.7,37.3,28.85,West,267,0.0,0.0,35,0.00,,SKC,0.00,VWS V14.00,2013-03-15 23:11:00,
2013-03-15 19:16:00,65.3,37.0,28.85,WSW,245,0.0,6.3,35,0.00,,SKC,0.00,VWS V14.00,2013-03-15 23:16:00,
2013-03-15 19:21:00,65.1,36.8,28.85,WSW,256,0.0,3.6,35,0.00,,SKC,0.00,VWS V14.00,2013-03-15 23:21:00,
2013-03-15 19:26:00,64.9,36.7,28.85,SW,217,0.0,4.9,35,0.00,,SKC,0.00,VWS V14.00,2013-03-15 23:26:00,
2013-03-15 19:31:00,64.8,36.5,28.85,ESE,117,3.2,4.0,35,0.00,,SKC,0.00,VWS V14.00,2013-03-15 23:31:00,
2013-03-15 19:40:00,64.6,36.3,28.85,WSW,242,2.7,5.4,35,0.00,,SKC,0.00,VWS V14.00,2013-03-15 23:40:00,
2013-03-15 19:46:00,64.4,36.2,28.85,SW,229,0.0,5.4,35,0.00,,SKC,0.00,VWS V14.00,2013-03-15 23:46:00,
2013-03-15 19:56:00,64.4,36.2,28.85,SW,227,0.0,2.7,35,0.00,,SKC,0.00,VWS V14.00,2013-03-15 23:56:00,
2013-03-15 20:01:00,64.2,36.7,28.85,WSW,240,0.0,0.0,36,0.00,,SKC,0.00,VWS V14.00,2013-03-16 00:01:00,
2013-03-15 20:06:00,64.0,36.6,28.88,SSW,211,0.0,0.0,36,0.00,,SKC,0.00,VWS V14.00,2013-03-16 00:06:00,
2013-03-15 20:11:00,63.9,36.4,28.88,SW,232,0.0,0.0,36,0.00,,SKC,0.00,VWS V14.00,2013-03-16 00:11:00,
2013-03-15 20:20:00,63.3,35.9,28.88,SW,222,0.0,2.7,36,0.00,,SKC,0.00,VWS V14.00,2013-03-16 00:20:00,
2013-03-15 20:27:00,63.0,35.6,28.88,SW,219,0.0,0.0,36,0.00,,SKC,0.00,VWS V14.00,2013-03-16 00:27:00,
2013-03-15 20:32:00,62.8,35.5,28.85,SSW,209,0.0,0.0,36,0.00,,SKC,0.00,VWS V14.00,2013-03-16 00:32:00,
2013-03-15 20:37:00,62.6,35.3,28.85,SSW,213,0.0,0.0,36,0.00,,SKC,0.00,VWS V14.00,2013-03-16 00:37:00,
2013-03-15 20:42:00,62.4,35.8,28.85,SW,215,2.7,4.0,37,0.00,,SKC,0.00,VWS V14.00,2013-03-16 00:42:00,
2013-03-15 20:50:00,62.2,35.7,28.85,South,189,0.0,4.0,37,0.00,,SKC,0.00,VWS V14.00,2013-03-16 00:50:00,
2013-03-15 20:57:00,61.9,35.3,28.85,South,184,0.0,2.7,37,0.00,,SKC,0.00,VWS V14.00,2013-03-16 00:57:00,
2013-03-15 21:02:00,61.9,35.3,28.85,SSW,202,0.0,3.1,37,0.00,,SKC,0.00,VWS V14.00,2013-03-16 01:02:00,
2013-03-15 21:07:00,61.9,36.0,28.85,SW,220,0.0,5.4,38,0.00,,SKC,0.00,VWS V14.00,2013-03-16 01:07:00,
2013-03-15 21:12:00,61.7,35.9,28.85,SSW,207,0.0,0.0,38,0.00,,SKC,0.00,VWS V14.00,2013-03-16 01:12:00,
2013-03-15 21:17:00,61.7,35.9,28.85,SSE,160,0.0,4.0,38,0.00,,SKC,0.00,VWS V14.00,2013-03-16 01:17:00,
2013-03-15 21:22:00,61.7,35.9,28.85,SSW,211,0.0,2.2,38,0.00,,SKC,0.00,VWS V14.00,2013-03-16 01:22:00,
2013-03-15 21:27:00,61.7,35.9,28.85,SSW,207,0.0,2.2,38,0.00,,SKC,0.00,VWS V14.00,2013-03-16 01:27:00,
2013-03-15 21:32:00,61.7,35.9,28.85,SSW,206,0.0,0.0,38,0.00,,SKC,0.00,VWS V14.00,2013-03-16 01:32:00,
2013-03-15 21:40:00,61.7,35.9,28.85,SSW,204,0.0,2.2,38,0.00,,SKC,0.00,VWS V14.00,2013-03-16 01:40:00,
2013-03-15 21:47:00,61.5,35.7,28.85,SW,216,0.0,4.9,38,0.00,,SKC,0.00,VWS V14.00,2013-03-16 01:47:00,
2013-03-15 21:52:00,61.5,36.3,28.85,SW,227,0.0,0.0,39,0.00,,SKC,0.00,VWS V14.00,2013-03-16 01:52:00,
2013-03-15 21:57:00,61.5,36.3,28.85,SW,235,0.0,4.0,39,0.00,,SKC,0.00,VWS V14.00,2013-03-16 01:57:00,
2013-03-15 22:02:00,61.5,36.3,28.85,SW,222,0.0,2.7,39,0.00,,SKC,0.00,VWS V14.00,2013-03-16 02:02:00,
2013-03-15 22:07:00,61.3,36.2,28.85,SW,219,0.0,3.6,39,0.00,,SKC,0.00,VWS V14.00,2013-03-16 02:07:00,
2013-03-15 22:12:00,61.3,36.2,28.85,SW,231,0.0,5.4,39,0.00,,SKC,0.00,VWS V14.00,2013-03-16 02:12:00,
2013-03-15 22:17:00,61.3,36.2,28.85,SW,218,0.0,6.3,39,0.00,,SKC,0.00,VWS V14.00,2013-03-16 02:17:00,
2013-03-15 22:22:00,61.3,36.2,28.85,SSW,212,4.3,4.9,39,0.00,,SKC,0.00,VWS V14.00,2013-03-16 02:22:00,
2013-03-15 22:27:00,61.3,36.2,28.85,SSW,213,0.0,4.9,39,0.00,,SKC,0.00,VWS V14.00,2013-03-16 02:27:00,
2013-03-15 22:32:00,61.3,36.2,28.85,SW,218,3.2,3.6,39,0.00,,SKC,0.00,VWS V14.00,2013-03-16 02:32:00,
2013-03-15 22:38:00,61.3,36.2,28.85,SW,233,2.7,3.6,39,0.00,,SKC,0.00,VWS V14.00,2013-03-16 02:38:00,
2013-03-15 22:43:00,61.2,36.0,28.85,SSW,213,4.3,4.3,39,0.00,,SKC,0.00,VWS V14.00,2013-03-16 02:43:00,
2013-03-15 22:48:00,61.0,36.5,28.85,SW,216,0.0,3.6,40,0.00,,SKC,0.00,VWS V14.00,2013-03-16 02:48:00,
2013-03-15 22:53:00,61.0,36.5,28.85,South,170,2.7,4.0,40,0.00,,SKC,0.00,VWS V14.00,2013-03-16 02:53:00,
2013-03-15 22:58:00,61.0,36.5,28.85,SSW,206,0.0,4.0,40,0.00,,SKC,0.00,VWS V14.00,2013-03-16 02:58:00,
2013-03-15 23:03:00,61.2,36.7,28.85,SSW,211,3.2,4.9,40,0.00,,SKC,0.00,VWS V14.00,2013-03-16 03:03:00,
2013-03-15 23:08:00,61.2,36.7,28.85,SW,222,0.0,5.4,40,0.00,,SKC,0.00,VWS V14.00,2013-03-16 03:08:00,
2013-03-15 23:13:00,61.2,36.7,28.85,SSW,200,0.0,5.8,40,0.00,,SKC,0.00,VWS V14.00,2013-03-16 03:13:00,
2013-03-15 23:18:00,61.2,36.7,28.85,West,272,2.7,5.8,40,0.00,,SKC,0.00,VWS V14.00,2013-03-16 03:18:00,
2013-03-15 23:23:00,61.2,36.7,28.85,SW,235,3.2,4.0,40,0.00,,SKC,0.00,VWS V14.00,2013-03-16 03:23:00,
2013-03-15 23:28:00,61.2,36.7,28.85,SW,236,4.3,6.3,40,0.00,,SKC,0.00,VWS V14.00,2013-03-16 03:28:00,
2013-03-15 23:33:00,61.2,36.7,28.85,South,169,0.0,3.1,40,0.00,,SKC,0.00,VWS V14.00,2013-03-16 03:33:00,
2013-03-15 23:38:00,61.2,37.3,28.85,SW,221,0.0,5.8,41,0.00,,SKC,0.00,VWS V14.00,2013-03-16 03:38:00,
2013-03-15 23:43:00,61.2,37.3,28.85,SW,223,0.0,5.4,41,0.00,,SKC,0.00,VWS V14.00,2013-03-16 03:43:00,
2013-03-15 23:48:00,61.3,37.5,28.85,WSW,238,3.2,5.4,41,0.00,,SKC,0.00,VWS V14.00,2013-03-16 03:48:00,
2013-03-15 23:53:00,61.3,37.5,28.85,SSW,202,3.8,5.8,41,0.00,,SKC,0.00,VWS V14.00,2013-03-16 03:53:00,
2013-03-15 23:58:00,61.3,37.5,28.85,South,181,4.3,5.8,41,0.00,,SKC,0.00,VWS V14.00,2013-03-16 03:58:00,